Location: Amherst
(42.5000°N, 72.5000°W)
Time: 15:56:01
(UTC-04:00)

ISS - Pass Details

Date: 18 July 2018
Orbit: 402 x 408 km, 51.6° (Epoch: 17 July)

Event Time Altitude Azimuth Distance (km) Brightness Sun altitude
Exits shadow 01:00:30 16° 317° (NW) 1,155 -1.1 -26.5°
Maximum altitude 01:01:47 20° 348° (NNW) 1,018 -1.1 -26.5°
Drops below altitude 10° 01:04:18 10° 37° (NE) 1,469 -0.3 -26.4°
Sets 01:06:46 0° 55° (NE) 2,332 0.5 -26.4°
